Regional Weather Roundup
Issued by NWS Wilmington, NC

Home | Current Version | Previous Version | Text Only | Print | Product List | Glossary On
Versions: 1 2 3 4 5 6 7 8 9 10 11 12 13 14 15 16 17 18 19 20 21 22 23 24 25 26 27 28 29 30 31 32 33 34 35 36 37 38 39 40 41 42 43 44 45 46 47 48 49 50
000
ASUS42 KILM 191810
RWRILM
RWRILM
REGIONAL HOURLY WEATHER ROUNDUP
NATIONAL WEATHER SERVICE WILMINGTON NC
200 PM EDT FRI SEP 19 2014

NOTE: "FAIR" INDICATES FEW OR NO CLOUDS BELOW 12,000 FEET WITH NO
SIGNIFICANT WEATHER AND/OR OBSTRUCTIONS TO VISIBILITY.

...............WFO WILMINGTON COUNTY WARNING AREA...............

......COASTAL NC AND SC COUNTIES......

CITY           SKY/WX    TMP DP  RH WIND       PRES   REMARKS
WILMINGTON     PTSUNNY   79  66  64 NE16G29   30.13S
SOUTHPORT      DRIZZLE   76  66  71 E9G16     30.11F
N MYRTLE BEACH CLOUDY    81  66  60 E15G24    30.10F
MYRTLE BEACH   PTSUNNY   81  66  61 E17G23    30.10F

......INLAND NC AND SC COUNTIES.......

CITY           SKY/WX    TMP DP  RH WIND       PRES   REMARKS
LUMBERTON      MOSUNNY   81  56  42 E12       30.14R
ELIZABETHTOWN  MOSUNNY   80  62  52 E5        30.14S
WHITEVILLE     PTSUNNY   80  65  59 E10G22    30.13R
FLORENCE       PTSUNNY   81  65  58 E14       30.12S
DARLINGTON     PTSUNNY   81  61  50 E10       30.14F

....................REST OF NORTH CAROLINA......................

.........EASTERN NC.........

CITY           SKY/WX    TMP DP  RH WIND       PRES   REMARKS
CAPE HATTERAS  PTSUNNY   76  64  66 NE10G20   30.17F
JACKSONVILLE   MOSUNNY   81  61  50 NE15      30.16S
MOREHEAD CITY  CLOUDY    78  64  61 NE10G21   30.15S
KENANSVILLE    PTSUNNY   79  58  49 E6        30.17R
NEW BERN       MOSUNNY   80  57  45 E13G22    30.18S
ELIZABETH CITY SUNNY     78  58  49 NE9       30.21F

.........CENTRAL NC.........

CITY           SKY/WX    TMP DP  RH WIND       PRES   REMARKS
RALEIGH DURHAM MOSUNNY   79  57  46 E15       30.18F
ROCKY MOUNT    MOSUNNY   79  59  50 E8        30.18F
ROANOKE RAPIDS NOT AVBL
FAYETTEVILLE   PTSUNNY   80  59  48 NE7       30.15S
HOFFMAN        MOSUNNY   81  52  36 E12G17    30.18S

.........WESTERN NC.........

CITY           SKY/WX    TMP DP  RH WIND       PRES   REMARKS
CHARLOTTE      CLOUDY    76  54  46 E8        30.17S
GREENSBORO     PTSUNNY   73  59  61 E8        30.19F
HICKORY        NOT AVBL
BOONE          NOT AVBL
ASHEVILLE      NOT AVBL

.....................REST OF SOUTH CAROLINA.....................

.........EASTERN SC.........

CITY           SKY/WX    TMP DP  RH WIND       PRES   REMARKS
CHARLESTON     CLOUDY    84  68  58 E17G24    30.06F
BEAUFORT MCAS  PTSUNNY   83  69  62 N16G22    30.04F
HILTON HEAD    NOT AVBL

.........CENTRAL SC.........

CITY           SKY/WX    TMP DP  RH WIND       PRES   REMARKS
COLUMBIA       PTSUNNY   79  66  64 N9        30.10F
ORANGEBURG     PTSUNNY   81  67  62 SE9       30.08F
SUMTER SHAW    PTSUNNY   81  63  53 E12       30.09F

.........WESTERN SC.........

CITY           SKY/WX    TMP DP  RH WIND       PRES   REMARKS
GREENVILLE     NOT AVBL
ROCK HILL      CLOUDY    74  58  57 E6        30.17S
ANDERSON       CLOUDY    75  65  70 E7        30.13F
CLEMSON        NOT AVBL
GREENWOOD      PTSUNNY   78  66  66 E8        30.14S


...................COASTAL AND OFFSHORE REPORTS..................

................LOCAL PIERS AND NC RESERVE................


STATION/POSITION TIME  SKY/WX   TEMP    WIND        PRES    VSBY
                                AIR SEA DIR/SP/G
                 (UTC)          (F)     (DEG/KT/KT) (MB)    (MI)
JOHNY MRCER PIER 1800            77 81   50/ 23/ 26 1019.6F
NC RESRV MASNBRO 1700            78      50/ 14     1020.0S
OCEAN CREST PIER 1800            78 81   30/ 22/ 28 1018.1F
SPRINGMAID  PIER 1800            78 81   60/ 20/ 23 1019.2F


................COASTAL AND OFFSHORE BUOYS................


STATION/POSITION TIME  SKY/WX   TEMP    WIND        PRES    VSBY
                                AIR SEA DIR/SP/G
                 (UTC)          (F)     (DEG/KT/KT) (MB)    (MI)
DIMNDSHOAL 41025 1800            78      50/ 17/ 21 1020.9S
WVE H/P(F/S)=  6/ 7 WND WVE H/P(F/S)=  5/ 7 SWL H/P/D(F/S/D)=  2/ 50/ 9

CAPE LOOKOUT     1700            76      60/ 20/ 22 1020.8R
ONSLOW BAY 41036 1800            79 82  100/ 19/ 23 1019.9F
WVE H/P(F/S)=  5/ 6 WND WVE H/P(F/S)=  5/ 6 SWL H/P/D(F/S/D)=  2/ 90/10

5 WRITEBCH 41038 1700            75 80   90/ 17/ 23   N/A
MASONBORO  41110 1800               80                N/A
WVE H/P(F/S)=  6/ 6 WND WVE H/P(F/S)=  7/ 6

WILM HARBR 41108 1800               81                N/A
WVE H/P(F/S)=  4/ 5 WND WVE H/P(F/S)=  5/ 5

27WRITEBCH 41037 1700            76 81  100/ 21/ 25 1019.8S
FRYING PAN 41013 NOT AVBL
SUNST NRSH 41024 1700            80      90/ 16/ 21 1019.5R
CAPRS NRSH 41029 1700            77     110/ 16/ 17   N/A
EDISTO     41004 1800            77 82   70/ 21/ 25 1017.1F
WVE H/P(F/S)=  4/ 6 WND WVE H/P(F/S)=  3/ 6 SWL H/P/D(F/S/D)=  2/ 9



..........OFFSHORE BUOYS BEYOND 100 NM OFFSHORE...........
.....IN A TRIANGLE---HAT TO BERMUDA TO BAHAMAS TO HAT.....


STATION/POSITION TIME  SKY/WX   TEMP    WIND        PRES    VSBY
                                AIR SEA DIR/SP/G
                 (UTC)          (F)     (DEG/KT/KT) (MB)    (MI)
150E HAT   41001 NOT AVBL
W BERMUDA  41048 1726            80 81   40/  8/ 10 1017.1F
WVE H/P(F/S)=  3/ 6 WND WVE H/P(F/S)=  2/ 4 SWL H/P/D(F/S/D)=  3/210/ 6

ATLANTIC S 41049 1748            81 85  240/ 10/ 14 1018.5R
WVE H/P(F/S)=  4/ 8 WND WVE H/P(F/S)=  2/ 4 SWL H/P/D(F/S/D)=  3/100/ 8

E BAHAMAS  41046 1654            84 87  120/  2/  4 1015.3F
WVE H/P(F/S)=  4/ 8 WND WVE H/P(F/S)=  2/ 4 SWL H/P/D(F/S/D)=  3/130/ 8

NE BAHAMAS 41047 1720            76 83  230/  4/  6 1016.0F
WVE H/P(F/S)=  3/ 9 WND WVE H/P(F/S)=  2/ 4 SWL H/P/D(F/S/D)=  2/100/ 9

120E CANVRL41010 1800            83 85   90/ 10/ 14 1015.0F
WVE H/P(F/S)=  3/11 WND WVE H/P(F/S)=  2/ 4 SWL H/P/D(F/S/D)=  2/ 60/11


END



USA.gov is the U.S. government's official web portal to all federal, state and local government web resources and services.